Location: Chuathbaluk
(61.5726°N, 159.2454°W)
Time: 05:46:57
(UTC+00:00)

FO-99 - Pass Details

Date: 24 January 2021
Orbit: 473 x 506 km, 97.2° (Epoch: 08 March)

Event Time Altitude Azimuth Distance (km) Brightness Sun altitude
Exits shadow 06:48:30 11° 337° (NNW) 1,638 ? -30.8°
Drops below altitude 10° 06:48:34 11° 338° (NNW) 1,663 ? -30.8°
Sets 06:50:46 0° 343° (NNW) 2,583 ? -31.1°
